Weather History for Doha, Qatar

Change the Weather History Date:

Saturday, August 17, 2013

  Actual Average Record
Temperature  
Mean Temperature 96 °F -  
Max Temperature 101 °F 103 °F 113 °F (2011)
Min Temperature 90 °F 82 °F 84 °F (1997)
Cooling Degree Days 30    
Growing Degree Days 46 (Base 50)    
Moisture  
Dew Point 84 °F    
Average Humidity 70    
Maximum Humidity 84    
Minimum Humidity 48    
Precipitation  
Precipitation 0.00 in 0.00 in - ()
Sea Level Pressure  
Sea Level Pressure 29.52 in    
Wind  
Wind Speed 6 mph ()    
Max Wind Speed 12 mph    
Max Gust Speed 18 mph    
Visibility 4.0 miles    
Events      
Averages and records for this station are not official NWS values.
T = Trace of Precipitation, MM = Missing Value Source: Averaged Metar Reports

Daily Weather History Graph

Daily Weather History Graph

Search for Another Location

Airport:

Trip Planner

Search our weather history database for the weather conditions in past years. The results will help you decide how hot, cold, wet, or windy it might be!

Date:

Astronomy

Aug. 17, 2013 Rise Set
Actual Time 5:08 AM AST 6:07 PM AST
Civil Twilight 4:44 AM AST 6:30 PM AST
Nautical Twilight 4:16 AM AST 6:58 PM AST
Astronomical Twilight 3:47 AM AST 7:27 PM AST
Moon 2:50 PM AST (8/17) 12:58 AM AST (8/17)
Length of Visible Light 13h 46m
Length of Day
12h 58m
Waxing Gibbous, 81% of the Moon is Illuminated
Aug 17
Waxing Gibbous
Aug 21
Full
Aug 28
Last Quarter
Sep 5
New
Sep 12
First Quarter

Hourly Weather History & Observations

Time (AST) Temp. Heat Index Dew Point Humidity Pressure Visibility Wind Dir Wind Speed Gust Speed Precip Events Conditions
12:00 AM 91.4 °F 122.4 °F 86.0 °F 84% 29.50 in 3.7 mi ENE 4.6 mph - N/A   Unknown
12:30 AM 91.4 °F 117.8 °F 84.2 °F 79% 29.50 in 3.7 mi East 5.8 mph - N/A   Unknown
1:00 AM 91.4 °F 117.8 °F 84.2 °F 79% 29.50 in 4.3 mi ESE 8.1 mph - N/A   Unknown
1:30 AM 91.4 °F 117.8 °F 84.2 °F 79% 29.50 in 4.3 mi ESE 6.9 mph - N/A   Unknown
2:00 AM 91.4 °F 114.3 °F 82.4 °F 75% 29.50 in 4.3 mi ESE 10.4 mph - N/A   Unknown
2:30 AM 91.4 °F 114.3 °F 82.4 °F 75% 29.50 in 4.3 mi East 6.9 mph 18.4 mph N/A   Unknown
3:00 AM 92 °F - 84 °F 72% 29.53 in 4 mi ESE 11.5 mph - -   Haze
3:00 AM 91.4 °F 117.8 °F 84.2 °F 79% 29.50 in 4.3 mi ESE 11.5 mph - N/A   Partly Cloudy
3:30 AM 91.4 °F 117.8 °F 84.2 °F 79% 29.50 in 4.3 mi SE 5.8 mph - N/A   Partly Cloudy
4:00 AM 91.4 °F 117.8 °F 84.2 °F 79% 29.53 in 4.3 mi SE 4.6 mph - N/A   Unknown
4:30 AM 91.4 °F 117.8 °F 84.2 °F 79% 29.53 in 4.3 mi SE 5.8 mph - N/A   Unknown
5:00 AM 91.4 °F 117.8 °F 84.2 °F 79% 29.53 in 3.7 mi SE 3.5 mph - N/A   Unknown
5:30 AM 89.6 °F 115.0 °F 84.2 °F 84% 29.53 in 3.7 mi Calm Calm - N/A   Unknown
6:00 AM 91.4 °F 117.8 °F 84.2 °F 79% 29.53 in 3.7 mi SSE 2.3 mph - N/A   Unknown
6:30 AM 91.4 °F 117.8 °F 84.2 °F 79% 29.53 in 4.3 mi Calm Calm - N/A   Unknown
7:00 AM 93.2 °F 120.9 °F 84.2 °F 75% 29.53 in 4.3 mi Calm Calm - N/A   Unknown
7:30 AM 95.0 °F 119.6 °F 82.4 °F 67% 29.53 in 4.3 mi ESE 3.5 mph - N/A   Unknown
8:00 AM 96.8 °F 118.6 °F 80.6 °F 60% 29.53 in 4.3 mi SE 5.8 mph - N/A   Unknown
8:30 AM 98.6 °F 114.4 °F 77.0 °F 50% 29.56 in 4.3 mi SE 8.1 mph - N/A   Unknown
9:00 AM 99 °F - 81 °F 48% 29.56 in 4 mi ESE 6.9 mph - -   Widespread Dust
9:00 AM 98.6 °F 120.3 °F 80.6 °F 56% 29.56 in 4.3 mi ESE 6.9 mph - N/A   Unknown
9:30 AM 98.6 °F 124.6 °F 82.4 °F 60% 29.56 in 5.0 mi East 8.1 mph - N/A   Unknown
10:00 AM 100.4 °F 126.1 °F 82.4 °F 56% 29.56 in 5.0 mi ESE 9.2 mph - N/A   Unknown
11:00 AM 100.4 °F 126.1 °F 82.4 °F 56% 29.53 in 4.3 mi ESE 9.2 mph - N/A   Unknown
12:00 PM 100.4 °F 130.9 °F 84.2 °F 60% 29.53 in 3.7 mi East 9.2 mph - N/A   Unknown
1:00 PM 100.4 °F 126.1 °F 82.4 °F 56% 29.50 in 3.7 mi ESE 9.2 mph - N/A   Unknown
1:30 PM 100.4 °F 126.1 °F 82.4 °F 56% 29.50 in 3.7 mi East 8.1 mph - N/A   Unknown
2:00 PM 100.4 °F 126.1 °F 82.4 °F 56% 29.50 in 3.7 mi East 10.4 mph - N/A   Unknown
2:30 PM 100.4 °F 126.1 °F 82.4 °F 56% 29.50 in 3.7 mi East 10.4 mph - N/A   Unknown
3:00 PM 100 °F - 83 °F 51% 29.51 in 4 mi East 10.4 mph - -   Haze
3:00 PM 100.4 °F 130.9 °F 84.2 °F 60% 29.50 in 3.7 mi East 10.4 mph - N/A   Unknown
3:30 PM 98.6 °F 128.0 °F 84.2 °F 63% 29.50 in 3.7 mi East 10.4 mph - N/A   Unknown
4:00 PM 98.6 °F 124.6 °F 82.4 °F 60% 29.50 in 3.7 mi ENE 10.4 mph - N/A   Unknown
4:30 PM 98.6 °F 128.0 °F 84.2 °F 63% 29.47 in 3.7 mi East 10.4 mph - N/A   Unknown
5:00 PM 96.8 °F 126.0 °F 84.2 °F 67% 29.47 in 3.7 mi East 10.4 mph - N/A   Unknown
5:30 PM 95.0 °F 128.0 °F 86.0 °F 75% 29.47 in 3.7 mi East 10.4 mph - N/A   Unknown
6:00 PM 95.0 °F 128.0 °F 86.0 °F 75% 29.50 in 3.7 mi NE 8.1 mph - N/A   Unknown
6:30 PM 95.0 °F 128.0 °F 86.0 °F 75% 29.50 in 3.7 mi NE 9.2 mph - N/A   Unknown
7:00 PM 95.0 °F 128.0 °F 86.0 °F 75% 29.50 in 3.7 mi NNE 8.1 mph - N/A   Unknown
7:30 PM 93.2 °F 120.9 °F 84.2 °F 75% 29.53 in 3.7 mi NNE 8.1 mph - N/A   Unknown
8:00 PM 93.2 °F 124.9 °F 86.0 °F 79% 29.53 in 3.7 mi NNE 6.9 mph - N/A   Unknown
8:30 PM 93.2 °F 120.9 °F 84.2 °F 75% 29.53 in 4.3 mi NNE 8.1 mph - N/A   Unknown
9:00 PM 93 °F - 85 °F 72% 29.56 in 4 mi NNE 8.1 mph - -   Haze
9:00 PM 93.2 °F 124.9 °F 86.0 °F 79% 29.53 in 4.3 mi NNE 8.1 mph - N/A   Unknown
9:30 PM 95.0 °F 123.7 °F 84.2 °F 71% 29.53 in 4.3 mi NNE 8.1 mph - N/A   Unknown
10:00 PM 93.2 °F 120.9 °F 84.2 °F 75% 29.53 in 4.3 mi NE 4.6 mph - N/A   Unknown
10:30 PM 93.2 °F 124.9 °F 86.0 °F 79% 29.53 in 4.3 mi NE 4.6 mph - N/A   Unknown
11:00 PM 93.2 °F 124.9 °F 86.0 °F 79% 29.53 in 4.3 mi NE 4.6 mph - N/A   Unknown